Location: Mountain Grove
(34.0887°N, 86.6172°W)
Time: 21:22:39
(UTC+00:00)

Centaur AC-72 - Pass Details

Date: 14 July 2020
Orbit: 1129 x 35227 km, 19.1° (Epoch: 07 August)

Event Time Altitude Azimuth Distance (km) Brightness Sun altitude
Exits shadow 08:18:19 23° 164° (SSE) 2,438 4.2 -24.4°
Drops below altitude 10° 08:21:53 10° 125° (SE) 3,004 5.1 -23.9°
Sets 08:24:43 0° 109° (ESE) 4,016 6.0 -23.6°
